Погода в Булавайо

Зимбабве     20°08′47″S   28°33′41″E
темп.,
°C
ветер,
м/с
пор.,
м/с
влажн.,
%
обл.,
%
осадки,
мм/ч
давл.,
гПа
погр.,
м
17 апреля, сб
сб1723:00+15вюв8158634 0.0 1021652
02:00+14в81485100 0.1 1022820
05:00+13вюв71290100 0.1 1023885
08:00+12вюв71389100 0.1 1025760
11:00+13вюв71181100 0.1 1026817
14:00+18вюв68566 0.1 10221053
17:00+16в57580 0.0 1022965
20:00+12в38763 0.0 1025277
18 апреля, вс
вс1823:00+11вюв310820 0.0 1025312
02:00+10в412810 0.0 1024405
05:00+9вюв512810 0.0 1025370
08:00+12в612670 0.0 1026467
11:00+19вюв67330 0.0 10241152
14:00+22вюв55250 0.0 10201793
17:00+20вюв46310 0.0 1020973
20:00+14вюв49470 0.0 1023225
19 апреля, пн
пн1923:00+12вюв49570 0.0 1023189
02:00+10вюв38640 0.0 1022156
05:00+9юв366543 0.0 1022110
08:00+14в374683 0.0 1023290
11:00+21вюв342174 0.0 10211242
14:00+23юв441766 0.0 10181815
17:00+21юв46220 0.0 1017521
20:00+15вюв37340 0.0 1021133
20 апреля, вт
вт2023:00+13вюв36470 0.0 1021109
02:00+11вюв35570 0.0 102083
05:00+10вюв39630 0.0 1021153
08:00+15вюв511520 0.0 1022547
11:00+21вюв68300 0.0 10211445
14:00+23в56230 0.0 10172034
17:00+21вюв56300 0.0 10181026
20:00+16вюв512460 0.0 1021416
21 апреля, ср
ср2123:00+14вюв512560 0.0 1021438
02:00+13вюв513680 0.0 1021480
05:00+12вюв512750 0.0 1022341
08:00+14вюв610650 0.0 1023481
11:00+21вюв56350 0.0 10211224
14:00+24вюв55250 0.0 10171982
17:00+22вюв46310 0.0 1017861
20:00+16вюв411500 0.0 1020318